[[{"header":{"parameterUnit":"m.s-1","parameterCategory":1,"la1":30.2991,"la2":30.254,"lo1":-89.0895,"lo2":-89.0444,"dy":0.0017,"dx":0.0017,"nx":28,"ny":28,"refTime":"2023-10-21T03:00:00:Z","depth":0,"parameterNumber":2,"parameterNumberName":"U-component_of_WINDS"},"data":[0,0,0,0,0,0,0,0,0,0,0,0,0,0,0,0,0,0,0,0,0,0,0,0,0,0,0,0,0,0,0,0,0,0,0,0,0,0,0,0,0,0,0,0,0,0,0,0,0,0,0,0,0,0,0,0,0,0,0.1763,0.1763,0,0.1762,0.1762,0.1762,0.1755,0.1755,0.1754,0.1754,0.1753,0.1753,0.1753,0,0,0,0,0,0,0,0,0,0,0,0,0,0.1758,0.1758,0.1763,0.1763,0.1763,0.1762,0.1762,0.1762,0.1755,0.1755,0.1754,0.1754,0.1753,0.1753,0.1753,0,0,0,0,0,0,0,0,0,0,0,0,0,0.1759,0.1758,0.1763,0.1759,0.1759,0.1762,0.1762,0.1762,0.1755,0.1755,0.1754,0.1754,0.1753,0.1753,0.1753,0.176,0,0,0.1754,0.1754,0,0,0,0,0,0,0,0,0.1759,0.1759,0.1759,0.1759,0.1759,0.1758,0.176,0.1761,0.1755,0.1756,0.1754,0.1754,0.1755,0.1755,0.1755,0.176,0.176,0.1754,0.1754,0.1754,0.1754,0,0,0,0,0,0,0,0.1759,0.1759,0.1762,0.1759,0.1759,0.1758,0.1757,0.176,0.1757,0.1756,0.1756,0.1756,0.1755,0.1755,0.1755,0.176,0.1754,0.1754,0.1754,0.1754,0.1772,0.1772,0,0,0,0,0,0,0.1759,0.1759,0.1762,0.1762,0.1758,0.1758,0.1758,0.1759,0.1757,0.1756,0.1756,0.1755,0.1755,0.1755,0.1755,0.1764,0.1754,0.1754,0.1754,0.1772,0.1772,0.1772,0,0,0,0,0,0,0.1759,0.176,0.1762,0.1761,0.1761,0.1758,0.1759,0.1759,0.1759,0.1757,0.1756,0.1757,0.1755,0.1755,0.1759,0.1764,0.1754,0.1754,0.1771,0.1772,0.1772,0.1782,0,0,0,0,0,0,0.1759,0.176,0.1762,0.1761,0.1761,0.1766,0.176,0.1759,0.176,0.1759,0.1758,0.1757,0.1754,0.1759,0.1759,0.1764,0.1755,0.1771,0.1771,0.1772,0.1781,0.1783,0.1784,0,0,0,0,0,0.1759,0.1764,0.1762,0.1762,0.1764,0.1766,0.1767,0.1764,0.176,0.1763,0.1761,0.1757,0.1764,0.176,0.176,0.1765,0.177,0.1771,0.1772,0.178,0.1782,0.1784,0,0,0,0,0,0,0.1765,0.1764,0.1761,0.1766,0.1767,0.1765,0.1768,0.1765,0.1767,0.1766,0.1762,0.1762,0.1767,0.1766,0.1762,0.1772,0.1766,0.1767,0.1773,0.1774,0.1776,0.1776,0.1755,0,0,0,0,0,0.1767,0.1769,0.1768,0.1772,0.1772,0.177,0.1771,0.1769,0.177,0.177,0.1769,0.1769,0.1771,0.1773,0.1774,0.1781,0.1782,0.1785,0.1786,0.1787,0.1788,0.1794,0.1796,0.1775,0.1775,0.1775,0,0,0.177,0.177,0.1771,0.1773,0.1773,0.1777,0.177,0.1773,0.1776,0.177,0.1775,0.1774,0.1774,0.1781,0.1783,0.178,0.1794,0.1788,0.1789,0.179,0.1795,0.1797,0.1799,0.1776,0.1776,0.1775,0,0,0.1778,0.1778,0.1782,0.1783,0.1784,0.1783,0.1784,0.1784,0.1784,0.1788,0.1785,0.1788,0.1791,0.1792,0.1793,0.1805,0.1802,0.1805,0.1813,0.1818,0.182,0.1822,0.1827,0.1829,0.1806,0.1806,0.1806,0,0.1782,0.1787,0.1785,0.1789,0.179,0.1786,0.1791,0.1792,0.1793,0.1795,0.1791,0.1797,0.1797,0.1804,0.1808,0.1808,0.181,0.1805,0.182,0.1821,0.1823,0.1828,0.183,0.1807,0.1807,0.1807,0.1807,0,0.1793,0.1796,0.18,0.1802,0.1804,0.1809,0.1808,0.181,0.1809,0.1808,0.1814,0.1814,0.1817,0.1818,0.1816,0.1826,0.1825,0.1821,0.1815,0.1825,0.183,0.1832,0.1808,0.1808,0.1807,0.1807,0,0,0.1803,0.1806,0.1807,0.181,0.1811,0.1814,0.1819,0.1823,0.1825,0.1827,0.1832,0.1836,0.1834,0.1835,0.1833,0.1838,0.1849,0.1833,0.1834,0.1837,0.1862,0.1865,0.1868,0.1847,0.1847,0.1848,0.1862,0,0.1812,0.1821,0.182,0.1829,0.1833,0.183,0.1835,0.1837,0.1837,0.1841,0.1841,0.1845,0.1841,0.1842,0.1846,0.1847,0.1854,0.1845,0.1852,0.1853,0.1853,0.187,0.1873,0.1887,0.1864,0.1865,0.1865,0,0.1823,0.1826,0.1836,0.1839,0.1841,0.1845,0.185,0.1853,0.1856,0.1856,0.1859,0.1857,0.1863,0.1857,0.1867,0.1861,0.1864,0.1865,0.1865,0.1866,0.186,0.1872,0.1891,0.1893,0.1867,0.1867,0.1867,0,0.1831,0.1838,0.1845,0.1846,0.185,0.1854,0.1855,0.1858,0.1861,0.1865,0.1867,0.1872,0.1874,0.1878,0.1878,0.1874,0.1888,0.1882,0.1889,0.1889,0.1892,0.1892,0.1913,0.1893,0.1893,0.1893,0.1893,0,0.1841,0.1847,0.1849,0.1853,0.1861,0.186,0.1868,0.1869,0.1872,0.1877,0.1875,0.188,0.188,0.1885,0.1885,0.1894,0.1895,0.1896,0.1896,0.1896,0.1896,0.1898,0.1898,0.1894,0.1894,0.1893,0.1893,0,0.185,0.1852,0.186,0.1864,0.1865,0.187,0.1874,0.1879,0.188,0.1887,0.1888,0.189,0.1897,0.1897,0.1904,0.1904,0.1915,0.1914,0.1915,0.1915,0.1923,0.1922,0.1945,0.1949,0.1927,0.1927,0.1927,0,0.1857,0.1862,0.1867,0.1871,0.1873,0.1879,0.1883,0.1883,0.1887,0.1893,0.1897,0.1904,0.1909,0.192,0.1922,0.1928,0.1928,0.1935,0.1928,0.193,0.1929,0.1929,0.193,0.1937,0.1937,0.1937,0.1937,0,0.1869,0.187,0.1875,0.1882,0.1887,0.1891,0.1896,0.1899,0.1901,0.1906,0.1913,0.1917,0.1926,0.1933,0.194,0.1942,0.194,0.194,0.1942,0.1943,0.1943,0.1945,0.1919,0.1939,0.1939,0.1939,0.1939,0.1939,0.1877,0.1883,0.1888,0.1895,0.1899,0.1904,0.1909,0.1912,0.1918,0.1926,0.1926,0.1934,0.194,0.1949,0.1952,0.1959,0.1956,0.1959,0.196,0.1961,0.1963,0.1942,0.196,0.196,0.196,0.196,0.196,0,0.189,0.1894,0.19,0.1908,0.1914,0.1913,0.1919,0.1924,0.1932,0.1937,0.1943,0.1953,0.196,0.1964,0.1972,0.1977,0.1977,0.1979,0.1979,0.198,0.1964,0.1962,0.1979,0.1979,0.1979,0.1979,0.1979,0.1979,0.1897,0.1907,0.1909,0.1921,0.1925,0.1934,0.1938,0.1943,0.1947,0.1959,0.1965,0.1968,0.1973,0.1982,0.199,0.1991,0.1994,0.1997,0.1998,0.1983,0.1981,0.1979,0.1977,0.1998,0.1998,0.2014,0.2014,0.2014]},{"header":{"parameterUnit":"m.s-1","parameterCategory":1,"la1":30.2991,"la2":30.254,"lo1":-89.0895,"lo2":-89.0444,"dy":0.0017,"dx":0.0017,"nx":28,"ny":28,"refTime":"2023-10-21T03:00:00:Z","depth":0,"parameterNumber":3,"parameterNumberName":"V-component_of_WINDS"},"data":[0,0,0,0,0,0,0,0,0,0,0,0,0,0,0,0,0,0,0,0,0,0,0,0,0,0,0,0,0,0,0,0,0,0,0,0,0,0,0,0,0,0,0,0,0,0,0,0,0,0,0,0,0,0,0,0,0,0,-0.0742,-0.0742,0,-0.0719,-0.0719,-0.0719,-0.0718,-0.0718,-0.0718,-0.0719,-0.0694,-0.0693,-0.0692,0,0,0,0,0,0,0,0,0,0,0,0,0,-0.0784,-0.0783,-0.0742,-0.0742,-0.0742,-0.0719,-0.0719,-0.0719,-0.0718,-0.0718,-0.0718,-0.0719,-0.0694,-0.0693,-0.0692,0,0,0,0,0,0,0,0,0,0,0,0,0,-0.0764,-0.0783,-0.0742,-0.0739,-0.0738,-0.0719,-0.0719,-0.0719,-0.0718,-0.0718,-0.0719,-0.0719,-0.0695,-0.0693,-0.0692,-0.0675,0,0,-0.0688,-0.0687,0,0,0,0,0,0,0,0,-0.0765,-0.0762,-0.0739,-0.0739,-0.0738,-0.0722,-0.0725,-0.0704,-0.0718,-0.0725,-0.0719,-0.0719,-0.0703,-0.0701,-0.0696,-0.0674,-0.0673,-0.0688,-0.0687,-0.0686,-0.0686,0,0,0,0,0,0,0,-0.0766,-0.0763,-0.0733,-0.0739,-0.0738,-0.0737,-0.0735,-0.0721,-0.0712,-0.0725,-0.0725,-0.0722,-0.0703,-0.0697,-0.0695,-0.0673,-0.0688,-0.0687,-0.0686,-0.0685,-0.0634,-0.0634,0,0,0,0,0,0,-0.0769,-0.0764,-0.0734,-0.0732,-0.0753,-0.0736,-0.0734,-0.0727,-0.0712,-0.071,-0.0722,-0.0722,-0.0699,-0.0697,-0.0694,-0.0672,-0.0686,-0.0685,-0.0684,-0.0635,-0.0634,-0.0634,0,0,0,0,0,0,-0.0769,-0.0766,-0.0735,-0.0748,-0.0744,-0.0735,-0.0727,-0.0726,-0.072,-0.071,-0.0708,-0.0718,-0.0699,-0.0696,-0.068,-0.0671,-0.0685,-0.0683,-0.0635,-0.0635,-0.0634,-0.0629,0,0,0,0,0,0,-0.0771,-0.0766,-0.076,-0.0748,-0.0744,-0.0721,-0.0727,-0.0725,-0.0718,-0.0718,-0.0706,-0.0704,-0.0699,-0.0682,-0.0678,-0.067,-0.0682,-0.0636,-0.0635,-0.0634,-0.063,-0.0628,-0.0626,0,0,0,0,0,-0.0772,-0.076,-0.076,-0.0756,-0.0736,-0.0721,-0.0718,-0.0713,-0.0717,-0.0711,-0.0704,-0.0704,-0.0673,-0.068,-0.0676,-0.0667,-0.0637,-0.0635,-0.0634,-0.063,-0.0628,-0.0626,0,0,0,0,0,0,-0.0771,-0.0758,-0.0758,-0.0742,-0.0732,-0.0721,-0.0712,-0.0712,-0.0701,-0.0701,-0.0696,-0.0693,-0.0676,-0.067,-0.0678,-0.0649,-0.0655,-0.0653,-0.0653,-0.0651,-0.065,-0.0651,-0.0681,0,0,0,0,0,-0.0769,-0.0758,-0.0748,-0.0734,-0.0729,-0.0722,-0.0715,-0.0712,-0.0702,-0.0698,-0.069,-0.0679,-0.0667,-0.0659,-0.0647,-0.0629,-0.0625,-0.0621,-0.0619,-0.0618,-0.0616,-0.0604,-0.0601,-0.063,-0.063,-0.063,0,0,-0.0765,-0.0756,-0.075,-0.0734,-0.0726,-0.0714,-0.0718,-0.0706,-0.0696,-0.0696,-0.0679,-0.0673,-0.0661,-0.0643,-0.0635,-0.0637,-0.0607,-0.0616,-0.0615,-0.0614,-0.0602,-0.0599,-0.0597,-0.0629,-0.0629,-0.0629,0,0,-0.075,-0.0744,-0.0731,-0.0723,-0.0711,-0.0706,-0.0703,-0.0691,-0.0686,-0.067,-0.0668,-0.0657,-0.0636,-0.0627,-0.062,-0.0601,-0.06,-0.0597,-0.0588,-0.0577,-0.0574,-0.0572,-0.0564,-0.0561,-0.0595,-0.0595,-0.0595,0,-0.0746,-0.0729,-0.0724,-0.0711,-0.0704,-0.0702,-0.0689,-0.0681,-0.0666,-0.066,-0.0664,-0.0636,-0.0628,-0.0607,-0.0602,-0.0597,-0.0592,-0.0598,-0.0575,-0.0573,-0.0571,-0.0563,-0.056,-0.0595,-0.0595,-0.0595,-0.0595,0,-0.0723,-0.0711,-0.0702,-0.0687,-0.0678,-0.0665,-0.0658,-0.065,-0.0647,-0.0641,-0.0623,-0.0614,-0.0599,-0.0594,-0.0592,-0.0572,-0.0574,-0.0576,-0.0582,-0.0568,-0.056,-0.0557,-0.0594,-0.0595,-0.0595,-0.0595,0,0,-0.0708,-0.069,-0.0687,-0.0679,-0.0665,-0.0655,-0.0641,-0.0627,-0.0619,-0.0609,-0.0596,-0.0578,-0.0579,-0.0571,-0.0568,-0.0558,-0.0541,-0.0561,-0.0561,-0.0556,-0.0516,-0.0514,-0.051,-0.0541,-0.054,-0.054,-0.0517,0,-0.0691,-0.0667,-0.0662,-0.064,-0.0628,-0.0626,-0.0613,-0.0603,-0.0597,-0.0585,-0.0578,-0.0564,-0.0568,-0.0563,-0.0553,-0.0545,-0.0532,-0.0547,-0.0527,-0.0527,-0.0529,-0.0506,-0.0504,-0.0483,-0.0514,-0.0513,-0.0513,0,-0.0668,-0.0656,-0.0633,-0.062,-0.0614,-0.0603,-0.0589,-0.0578,-0.0566,-0.0562,-0.0552,-0.0549,-0.0533,-0.054,-0.0518,-0.0528,-0.0519,-0.0514,-0.0513,-0.051,-0.0518,-0.0501,-0.0476,-0.0472,-0.0508,-0.0509,-0.0509,0,-0.0657,-0.0636,-0.0619,-0.0613,-0.0597,-0.0589,-0.0582,-0.057,-0.0561,-0.0548,-0.0542,-0.0528,-0.052,-0.0508,-0.0501,-0.0507,-0.0478,-0.0486,-0.0473,-0.0474,-0.0467,-0.0467,-0.0438,-0.0464,-0.0464,-0.0464,-0.0464,0,-0.0638,-0.0624,-0.0614,-0.0603,-0.0586,-0.0581,-0.0564,-0.0557,-0.0546,-0.0533,-0.0531,-0.0519,-0.0511,-0.0498,-0.0492,-0.0473,-0.047,-0.0465,-0.0464,-0.0465,-0.0465,-0.0458,-0.0459,-0.0463,-0.0463,-0.0463,-0.0463,0,-0.0623,-0.0616,-0.0597,-0.0583,-0.0579,-0.0568,-0.0555,-0.0544,-0.0538,-0.0521,-0.0517,-0.0507,-0.049,-0.0483,-0.0463,-0.0459,-0.0437,-0.0437,-0.0441,-0.044,-0.0428,-0.0428,-0.0393,-0.0387,-0.0418,-0.0417,-0.0417,0,-0.0611,-0.06,-0.0585,-0.0576,-0.0568,-0.0555,-0.0545,-0.0539,-0.0529,-0.0513,-0.0503,-0.0487,-0.0474,-0.0448,-0.0438,-0.0422,-0.0421,-0.0409,-0.0418,-0.0419,-0.0418,-0.0419,-0.0416,-0.0407,-0.0407,-0.0407,-0.0407,0,-0.059,-0.0586,-0.0573,-0.0558,-0.0547,-0.0535,-0.0523,-0.0516,-0.0507,-0.0496,-0.0479,-0.0469,-0.0447,-0.0431,-0.0414,-0.0406,-0.0404,-0.0404,-0.04,-0.04,-0.0402,-0.0399,-0.0435,-0.0405,-0.0405,-0.0405,-0.0405,-0.0405,-0.0575,-0.0564,-0.0551,-0.0536,-0.0526,-0.0514,-0.0503,-0.0495,-0.0481,-0.0463,-0.046,-0.0441,-0.0428,-0.0405,-0.0396,-0.0381,-0.0383,-0.0378,-0.0376,-0.0375,-0.0373,-0.0406,-0.0378,-0.0378,-0.0378,-0.0378,-0.0378,0,-0.0552,-0.0543,-0.0529,-0.0512,-0.05,-0.05,-0.0486,-0.0475,-0.0459,-0.0447,-0.0433,-0.0413,-0.0396,-0.0385,-0.0367,-0.0357,-0.0356,-0.0353,-0.0353,-0.035,-0.0373,-0.0377,-0.0354,-0.0354,-0.0354,-0.0354,-0.0354,-0.0354,-0.0538,-0.052,-0.0514,-0.049,-0.0481,-0.0463,-0.0455,-0.0444,-0.0433,-0.0411,-0.0397,-0.0389,-0.0377,-0.0358,-0.0342,-0.0339,-0.0332,-0.0329,-0.0325,-0.0346,-0.0349,-0.0351,-0.0355,-0.0328,-0.0328,-0.0304,-0.0303,-0.0303]}]]